Погода в Стерлитамаке

Погода в Стерлитамаке : погода сейчас, прогноз погоды и архив. Всё, что Вы хотите узнать о погоде в Стерлитамаке!

Хотите узнать прогноз погоды в Стерлитамаке? Тогда Вам сюда: Погода в Стерлитамаке

Поиск расширенной информации на нашем сайте:

Другие новости

Новости СМИ2

Главная страница сайта

Новости сайта

02.10.2013

Напоминаем, что на нашем новом сайте вы можете получить высокодетализированные прогнозы погоды по пунктам России, СНГ и мира (включающие важные для авиации метеовеличины, такие как направление и скорость ветра, видимость, явления погоды, количество и форма облачности, нижняя и верхняя граница облачности), а также ознакомиться с разнообразными материалами по авиационной метеорологии и подборкой полезных ссылок на эту тему.

Сайт Метеоцентр.Азия посвящён разработке технологий оптимизации авиаметеорологического обслуживания, включая проектирование и перспективное создание нескольких автоматизированных авиаметеорологических систем:
- система выпуска высокодетальных прогностических карт явлений погоды для нижнего воздушного пространства по России и ближнему зарубежью;
- система верификации прогнозов TAF (выпускаемых синоптиками официальных АМСГ РФ и ближнего зарубежья) и AUTOTAF (выпускаемых сайтом Метеоцентр.Азия) - выявление ошибок, онлайн-сопоставление с фактической погодой METAR, автоматическое внесение коррективов в прогнозы при резком отклонении фактической погоды от прогноза, подсчёт оправдываемости прогнозов по элементам и в целом;
- система обработки, анализа и отображения авиаметеорологической информации для применения провайдерами метеорологической информации.

Рекомендуем: см тут аренда офиса в бп курский арма завод Нижний Сусальный пер. на выгодных условиях

Погода в Стерлитамаке - сегодня

Время (UTC), дата Ветер
(°,м/с) 
Видим.   Явления Облачность Т
(°С)
Тd
(°С)
f(%) Тe
(°С)
Pmin
(гПа)
dP
(гПа)
Po
(мм)
O2
(г/м3)
Тmin Tmax R s Состояние
почвы
06 21.06.17 300 (СЗ) 20000 м    1/1 1000 м 
[Cu hum]
+19.3 +8.4 49 +20  1003.9  0.6  741  277           
09 21.06.17 290 (З) 20000 м    6/6 1000 м 
[Cu med, cong]
+21.8 +8.2 42 +22  1004  0.2  741  275           
12 21.06.17 250 (З) 20000 м    8/8 1000 м 
[Cu med, cong]
+22.5 +4.7 31 +23  1003.8  -0.2  741  275           
15 21.06.17 230 (ЮЗ) 20000 м    3/0 средняя 
[Ac cuf]
+22.5 +5.8 34 +23  1003.5  -0.3  741  275    +23.4       
18 21.06.17 тихо ()   10 км    3/0 средняя 
[Ac trans]
+15.7 +10 69 +17  1003.9  0.1  741  280           
21 21.06.17 210 (ЮЗ) 10 км    ясно 
+13.4 +9.8 79 +16  1003.8  -0.3  741  283           
00 22.06.17 200 (Ю) 10 км    8/8 1000 м кучево-дожд. 
[Cb cap]
+14.8 +9.6 71 +16  1003.4  -0.3  740  281           
03 22.06.17 190 (Ю) 10 км    9/9 1000 м кучево-дожд. 
[Cb cap]
+17.4 +9.2 59 +18  1003.3  0.1  740  279  +13.4        сухая 
06 22.06.17 200 (Ю) 20000 м  {ливн. осадки}  9/8 1000 м кучево-дожд., средняя 
[Cb cap|Ac cuf]
+21.1 +10.3 50 +23  1003.3  0.2  741  275           
09 22.06.17 200 (Ю) 20000 м    10/8 1000 м кучево-дожд., средняя 
[Cb cap|Ac As]
+24 +9.9 41 +25  1002.4  -0.7  740  272           
12 22.06.17 200 (Ю) 20000 м    10/10 1000 м кучево-дожд. 
[Cb cap]
+22.3 +10.8 48 +25  1002.3  0.1  740  274           
15 22.06.17 190 (Ю) 20000 м    10/10 1000 м кучево-дожд. 
[Cb cap]
+22.2 +12.3 53 +27  1001.5  -0.8  739  273    +24.2  0.0     
18 22.06.17 330 (СЗ) 10 км  слаб. ливневой дождь  10/10 600 м кучево-дожд. 
[Cb cap]
+18.8 +13.8 73 +27  1002.7  1.1  740  276           
21 22.06.17 180 (Ю) 10 км  ливневой дождь  10/10 600 м кучево-дожд. 
[Cb cap]
+16.3 +14.6 90 +25  1004.2  1.3  741  279           
00 23.06.17 350 (С) 10 км  {ливн. осадки}  8/8 1000 м кучево-дожд. 
[Cb cap]
+13.6 +9.7 77 +16  1005.4  742  283           
03 23.06.17 330 (СЗ) 20000 м    4/0 верхняя 
[Ci sp]
+14.9 +8.9 67 +16  1006.5  1.1  743  282  +13      влажная 
06 23.06.17 320 (СЗ) 20000 м    1/1 1000 м 
[Cu hum]
+18.5 +7.7 49 +19  1006.8  0.5  743  279           
09 23.06.17 290 (З) 20000 м    6/6 1000 м 
[Cu hum]
+20.3 +6.1 40 +20  1007.4  0.7  744  278           
12 23.06.17 310 (СЗ) 20000 м    6/6 1000 м 
[Cu hum]
+21.1 +3.6 32 +21  1006.8  -0.5  743  277           
15 23.06.17 330 (СЗ) 20000 м    3/3 1000 м 
[Cu hum]
+20.7 +4.5 34 +21  1006.9  0.1  743  278    +21.7       
18 23.06.17 250 (З) 10 км    ясно 
+13.5 +8 69 +15  1008.3  0.5  744  284           
21 23.06.17 210 (ЮЗ) 10 км    ясно 
+11 +8.3 83 +12  1008.7  0.3  744  287           
00 24.06.17 210 (ЮЗ) 10 км    ясно 
+9.2 +7.5 89 +10  1008.8  744  289           
03 24.06.17 200 (Ю) 20000 м    ясно 
+14.2 +9.3 72 +15  1008.6  0.1  744  283  +9.1        влажная 
06 24.06.17 190 (Ю) 20000 м    6/0 средняя 
[Ac trans]
+20.2 +8.5 47 +20  1008.1  -0.2  744  278           
Время (UTC), дата Ветер
(°,м/с) 
Видим.   Явления Облачность Т
(°С)
Тd
(°С)
f(%) Тe
(°С)
Pmin
(гПа)
dP
(гПа)
Po
(мм)
O2
(г/м3)
Тmin Tmax R s Состояние
почвы

Для получения пояснительной информации подведите курсор к названию столбца.

ПОГОДА в Стерлитамаке - архив

Всё, что Вы хотите узнать о погоде в Стерлитамаке - удобно и подробно!

Выберите нужную дату (начиная с 1 января 2015* года) и нажмите кнопку "Найти".
Будут отображены архивные сводки погоды по пункту Стерлитамак, начиная с указанной даты.


Отображать данные в формате CSV (для использования в таблицах Excel)


Внимание! Наш архив погоды предназначен исключительно для личного некоммерческого использования в познавательных целях. Если Вам необходимы официальные справки о состоянии погоды (для производственных, юридических, коммерческих и т.п. целей), обращайтесь в органы Росгидромета.

*Примечание: данная дата относится к архиву по метеостанциям СССР (Россия, СНГ, Балтия).
Архив по метеостанциям Зарубежной Европы и Азии (кроме Китая) хранится 10 дней, по другим регионам земного шара (Китай, Африка, Америка, Австралия, Океания) - 1 день.

Стерлитамак - район местоположения метеостанции


Название, широта, долгота, высота метеостанции:
Стерлитамак 53.6°ш. 56°д. 137 м над ур. моря [Российская Федерация]

Дополнительная информация

В oтличие oт бoльшинства пoгoдных сайтoв мы публикуем пoдрoбную метеoинфoрмацию в детальнoм прoфессиoнальнoм фoрмате.

Характеристики температуры и влажнoсти вoздуха измеряются на высoте 2 м в тени вдали oт зданий и деревьев.
Скoрoсть ветра измеряется на высoте 10 м (на урoвне рoста челoвека скoрoсть ветра ниже в 1.5-2 раза). Если метеoстанция нахoдится в гoрoде или в лесу, тo скoрoсть ветра занижена на 2-4 м/с пo сравнению с oткрытым местoм. Скoрoсть ветра над акватoриями крупных рек и oзёр, а также на вершинах хoлмoв на 2-5 м/с выше, чем в oбычных услoвиях.
Атмoсфернoе давление в разных тoчках местнoсти мoжет значительнo oтличаться oт давления на метеoстанции, в зависимoсти oт услoвий рельефа (при пoдъёме на 10 м давление пoнижается примернo на 1 мм рт.ст.).